�N����,����,�g�[���i�䏊�j���x,�g�[�����x,��g�[���i���ցj���x,����
 2003/06/01, 0:00,27.4,53,23.9,21.8
 2003/06/01, 0:15,27.4,53,23.7,21.8
 2003/06/01, 0:30,27.3,53,23.7,21.7
 2003/06/01, 0:45,27,53,23.5,21.7
 2003/06/01, 1:00,26.7,53,23.4,21.7
 2003/06/01, 1:15,26.7,54,23.4,21.8
 2003/06/01, 1:30,26.7,53,23.2,21.8
 2003/06/01, 1:45,26.3,54,23.2,21.6
 2003/06/01, 2:00,26.3,53,23.1,21.7
 2003/06/01, 2:15,26.2,53,23,21.7
 2003/06/01, 2:30,25.9,53,22.9,21.7
 2003/06/01, 2:45,26,53,22.8,21.6
 2003/06/01, 3:00,26,53,22.7,21.6
 2003/06/01, 3:15,25.9,53,22.7,21.6
 2003/06/01, 3:30,25.6,53,22.6,21.7
 2003/06/01, 3:45,25.3,54,22.5,21.7
 2003/06/01, 4:00,25.6,54,22.5,21.7
 2003/06/01, 4:15,25.7,53,22.4,21.7
 2003/06/01, 4:30,25.7,53,22.4,21.8
 2003/06/01, 4:45,25.7,53,22.4,21.8
 2003/06/01, 5:00,25.4,53,22.3,21.8
 2003/06/01, 5:15,25.3,53,22.3,21.5
 2003/06/01, 5:30,25.2,53,22.2,21.5
 2003/06/01, 5:45,25.1,53,22.2,21.5
 2003/06/01, 6:00,25.3,52,22.1,21.6
 2003/06/01, 6:15,25,55,22.1,21.4
 2003/06/01, 6:30,25.3,57,22.2,21.4
 2003/06/01, 6:45,25.4,57,22.2,21.3
 2003/06/01, 7:00,25.5,57,22.2,21.3
 2003/06/01, 7:15,25.5,53,21.9,21.3
 2003/06/01, 7:30,25.3,52,22,21.4
 2003/06/01, 7:45,25.6,52,22.1,21.3
 2003/06/01, 8:00,25.5,50,22.1,21.3
 2003/06/01, 8:15,25.6,50,22.1,21.3
 2003/06/01, 8:30,25.7,50,22.2,21.3
 2003/06/01, 8:45,25.8,49,22.2,21.3
 2003/06/01, 9:00,25.8,49,22.2,21.3
 2003/06/01, 9:15,25.5,49,22.2,21.4
 2003/06/01, 9:30,25.1,50,22.2,21.4
 2003/06/01, 9:45,25,50,22.1,21.4
 2003/06/01,10:00,25,50,22.1,21.4
 2003/06/01,10:15,24.9,49,22.1,21.4
 2003/06/01,10:30,24.7,50,22.1,21.5
 2003/06/01,10:45,24.6,50,22.1,21.5
 2003/06/01,11:00,24.7,50,22.2,21.5
 2003/06/01,11:15,24.8,50,22.3,21.5
 2003/06/01,11:30,24.6,50,22.3,21.5
 2003/06/01,11:45,24.5,50,22.3,21.6
 2003/06/01,12:00,24.6,49,22.3,21.6
 2003/06/01,12:15,24.6,49,22.4,21.6
 2003/06/01,12:30,24.4,50,22.4,21.6
 2003/06/01,12:45,24.6,49,22.4,21.6
 2003/06/01,13:00,24.7,49,22.4,21.6
 2003/06/01,13:15,24.5,49,22.5,21.6
 2003/06/01,13:30,24.5,49,22.5,21.7
 2003/06/01,13:45,24.7,49,22.5,21.7
 2003/06/01,14:00,24.7,48,22.7,21.7
 2003/06/01,14:15,24.6,49,22.6,21.7
 2003/06/01,14:30,24.8,48,22.8,21.7
 2003/06/01,14:45,25.1,48,22.9,21.7
 2003/06/01,15:00,24.9,48,22.9,21.7
 2003/06/01,15:15,25,48,22.9,21.8
 2003/06/01,15:30,25.1,47,23,21.8
 2003/06/01,15:45,25.4,47,23.1,21.8
 2003/06/01,16:00,25.4,46,23.1,21.8
 2003/06/01,16:15,25.2,46,23.2,21.8
 2003/06/01,16:30,25.4,46,23.2,21.8
 2003/06/01,16:45,25.6,46,23.2,21.8
 2003/06/01,17:00,25.8,45,23.4,21.8
 2003/06/01,17:15,26,45,23.6,21.9
 2003/06/01,17:30,26.1,44,23.7,21.9
 2003/06/01,17:45,25.9,45,23.9,21.9
 2003/06/01,18:00,26.1,44,23.9,21.6
 2003/06/01,18:15,26.1,44,23.9,21.5
 2003/06/01,18:30,25.9,44,23.7,21.5
 2003/06/01,18:45,25.9,44,23.6,21.5
 2003/06/01,19:00,25.8,45,23.3,21.5
 2003/06/01,19:15,25.7,48,23.2,21.6
 2003/06/01,19:30,25.5,48,22.3,21.3
 2003/06/01,19:45,25.3,47,22.7,21.4
 2003/06/01,20:00,25,46,22.6,21.3
 2003/06/01,20:15,25.5,47,22.6,21.4
 2003/06/01,20:30,25.4,47,22.6,21.4
 2003/06/01,20:45,25.8,50,22.4,21.4
 2003/06/01,21:00,25.7,49,22.3,21.2
 2003/06/01,21:15,25.7,49,22.2,21.3
 2003/06/01,21:30,25.5,50,22.1,21.3
 2003/06/01,21:45,25.5,50,22,21.2
 2003/06/01,22:00,25.3,50,22,21.2
 2003/06/01,22:15,25.3,50,21.9,21.2
 2003/06/01,22:30,25.2,49,21.8,21.3
 2003/06/01,22:45,25.1,49,21.7,21.3
 2003/06/01,23:00,25.1,49,21.6,21.3
 2003/06/01,23:15,24.9,49,21.5,21.3
 2003/06/01,23:30,24.8,49,21.3,21.3
 2003/06/01,23:45,24.6,49,21.2,21.3
 2003/06/02, 0:00,24.6,49,21.2,21.4
 2003/06/02, 0:15,24.4,50,21.2,21.1
 2003/06/02, 0:30,24.3,50,21.1,21.1
 2003/06/02, 0:45,24.3,50,21,21.2
 2003/06/02, 1:00,24.1,50,20.9,21.2
 2003/06/02, 1:15,24.1,50,20.8,21.2
 2003/06/02, 1:30,23.9,51,20.7,21.2
 2003/06/02, 1:45,23.9,51,20.6,21.2
 2003/06/02, 2:00,23.8,51,20.5,21.2
 2003/06/02, 2:15,23.7,51,20.5,21.3
 2003/06/02, 2:30,23.7,51,20.4,21.3
 2003/06/02, 2:45,23.6,51,20.3,21.3
 2003/06/02, 3:00,23.5,51,20.3,21.3
 2003/06/02, 3:15,23.4,51,20.2,21.3
 2003/06/02, 3:30,23.5,51,20.1,21.3
 2003/06/02, 3:45,23.2,51,20.1,21.3
 2003/06/02, 4:00,23,52,20,21.3
 2003/06/02, 4:15,23,52,20,21.4
 2003/06/02, 4:30,23.2,51,19.9,21.4
 2003/06/02, 4:45,23.2,51,19.9,21.4
 2003/06/02, 5:00,23.3,50,19.8,21.4
 2003/06/02, 5:15,23.1,51,19.8,20.9
 2003/06/02, 5:30,23,57,19.8,20.9
 2003/06/02, 5:45,23,52,19.8,20.9
 2003/06/02, 6:00,22.8,51,19.8,21
 2003/06/02, 6:15,22.7,49,19.8,21.1
 2003/06/02, 6:30,23,50,19.8,21.1
 2003/06/02, 6:45,23.2,52,19.9,21.2
 2003/06/02, 7:00,23.3,52,20,21.2
 2003/06/02, 7:15,23.2,52,20,21.2
 2003/06/02, 7:30,23.2,50,20,21
 2003/06/02, 7:45,23.1,49,20,21
 2003/06/02, 8:00,23.2,48,20.2,21
 2003/06/02, 8:15,23.3,47,20.3,21.1
 2003/06/02, 8:30,23.4,47,20.4,21.1
 2003/06/02, 8:45,23.4,47,20.5,20.8
 2003/06/02, 9:00,23.6,47,20.7,20.8
 2003/06/02, 9:15,23.5,48,20.9,20.9
 2003/06/02, 9:30,23.4,50,21.1,20.8
 2003/06/02, 9:45,23.5,50,21.2,20.8
 2003/06/02,10:00,23.7,49,21.4,20.9
 2003/06/02,10:15,23.8,48,21.5,20.9
 2003/06/02,10:30,23.9,47,21.6,20.9
 2003/06/02,10:45,23.8,47,21.7,20.9
 2003/06/02,11:00,23.7,47,21.8,20.9
 2003/06/02,11:15,23.8,47,21.9,20.9
 2003/06/02,11:30,24,47,22,20.9
 2003/06/02,11:45,24.1,46,22.1,20.9
 2003/06/02,12:00,24.2,46,22.2,20.9
 2003/06/02,12:15,24,47,22.3,20.9
 2003/06/02,12:30,24.1,47,22.5,20.9
 2003/06/02,12:45,24.4,46,22.7,21
 2003/06/02,13:00,24.4,46,22.9,21
 2003/06/02,13:15,24.6,46,23,21
 2003/06/02,13:30,24.6,46,23,21
 2003/06/02,13:45,24.5,46,23,21
 2003/06/02,14:00,24.7,46,23,21.1
 2003/06/02,14:15,24.9,46,23.1,21.1
 2003/06/02,14:30,25.1,45,23.1,21.1
 2003/06/02,14:45,25.2,45,23.2,21.1
 2003/06/02,15:00,25.2,45,23.2,21.1
 2003/06/02,15:15,25.8,44,23.4,21.1
 2003/06/02,15:30,26.1,43,23.5,21.2
 2003/06/02,15:45,26.3,42,23.6,21.2
 2003/06/02,16:00,26.3,40,23.7,21.2
 2003/06/02,16:15,26.3,39,24.2,21.3
 2003/06/02,16:30,26.7,37,24.3,21.3
 2003/06/02,16:45,27,36,24.7,21.3
 2003/06/02,17:00,27.1,35,24.4,21.3
 2003/06/02,17:15,27.1,34,24.2,21.3
 2003/06/02,17:30,27.2,34,24.3,21.4
 2003/06/02,17:45,27.2,34,24.3,21.4
 2003/06/02,18:00,27.2,35,24.5,21.1
 2003/06/02,18:15,27.2,36,24.4,21.2
 2003/06/02,18:30,27.1,39,24.3,21.2
 2003/06/02,18:45,27.2,38,24.4,21.2
 2003/06/02,19:00,27.2,39,24.3,21.2
 2003/06/02,19:15,27.3,40,24.2,21.2
 2003/06/02,19:30,27.1,41,24,21.2
 2003/06/02,19:45,26.9,42,24,21.3
 2003/06/02,20:00,27.5,52,23.7,21.3
 2003/06/02,20:15,27,43,23.4,21.3
 2003/06/02,20:30,26.7,39,23.2,21.3
 2003/06/02,20:45,26.4,39,23.1,21.2
 2003/06/02,21:00,26.4,42,23,21.2
 2003/06/02,21:15,26.2,42,22.8,21.1
 2003/06/02,21:30,26.1,41,22.7,21.1
 2003/06/02,21:45,26.2,40,22.6,21.2
 2003/06/02,22:00,26.1,41,22.4,21.2
 2003/06/02,22:15,26,44,22.3,21.1
 2003/06/02,22:30,25.9,43,22.2,21.1
 2003/06/02,22:45,25.3,40,21.9,21.2
 2003/06/02,23:00,25.4,40,22.1,21.2
 2003/06/02,23:15,25.1,41,22.1,21.2
 2003/06/02,23:30,25.1,41,22,21.1
 2003/06/02,23:45,25,42,21.8,21.2
 2003/06/03, 0:00,24.9,43,21.7,21.2
 2003/06/03, 0:15,24.9,43,21.7,21.2
 2003/06/03, 0:30,24.7,44,21.6,21.2
 2003/06/03, 0:45,24.6,44,21.5,21.3
 2003/06/03, 1:00,24.5,44,21.4,21.3
 2003/06/03, 1:15,24.4,45,21.3,21.3
 2003/06/03, 1:30,24.5,45,21.2,21.3
 2003/06/03, 1:45,24.3,46,21.1,21.3
 2003/06/03, 2:00,24.2,46,21,21.3
 2003/06/03, 2:15,24.2,46,21,21.3
 2003/06/03, 2:30,24.1,46,20.9,21.3
 2003/06/03, 2:45,23.9,46,20.8,21.3
 2003/06/03, 3:00,23.9,46,20.7,21.3
 2003/06/03, 3:15,24,46,20.7,21
 2003/06/03, 3:30,23.7,45,20.6,21.1
 2003/06/03, 3:45,23.3,45,20.5,21.1
 2003/06/03, 4:00,23.3,45,20.4,21.1
 2003/06/03, 4:15,23.5,44,20.3,21.1
 2003/06/03, 4:30,23.5,44,20.2,21.1
 2003/06/03, 4:45,23.5,43,20.2,21.1
 2003/06/03, 5:00,23.4,44,20.2,21.1
 2003/06/03, 5:15,23.2,44,20.1,20.9
 2003/06/03, 5:30,23.2,47,20.1,20.9
 2003/06/03, 5:45,23.2,47,20.1,20.9
 2003/06/03, 6:00,23.3,46,20.1,20.9
 2003/06/03, 6:15,23.3,47,20,20.9
 2003/06/03, 6:30,23.5,49,20.1,20.9
 2003/06/03, 6:45,23.6,51,20.1,21
 2003/06/03, 7:00,23.7,49,20.2,21.1
 2003/06/03, 7:15,23.4,49,20.3,21
 2003/06/03, 7:30,23.6,48,20.3,21.1
 2003/06/03, 7:45,23.7,48,20.4,21.1
 2003/06/03, 8:00,23.9,48,20.6,21.1
 2003/06/03, 8:15,23.8,45,20.6,21
 2003/06/03, 8:30,23.8,43,20.7,21
 2003/06/03, 8:45,23.7,41,20.8,21.2
 2003/06/03, 9:00,23.9,41,21.1,21.2
 2003/06/03, 9:15,23.9,41,21.2,21.2
 2003/06/03, 9:30,24.1,41,21.5,21.1
 2003/06/03, 9:45,24.2,41,21.7,21.1
 2003/06/03,10:00,24.3,41,21.9,21.1
 2003/06/03,10:15,24.3,41,22.1,21.1
 2003/06/03,10:30,24.3,42,22.2,21.1
 2003/06/03,10:45,24.5,41,22.3,21.1
 2003/06/03,11:00,24.4,42,22.4,21.1
 2003/06/03,11:15,24.5,42,22.5,21.2
 2003/06/03,11:30,24.7,42,22.6,21.2
 2003/06/03,11:45,24.7,42,22.6,21.2
 2003/06/03,12:00,24.6,42,22.7,21.2
 2003/06/03,12:15,24.9,42,22.9,21.2
 2003/06/03,12:30,25,42,23.1,21.2
 2003/06/03,12:45,24.8,42,23.3,21.3
 2003/06/03,13:00,25.1,42,23.4,21.3
 2003/06/03,13:15,25.3,42,23.4,21.3
 2003/06/03,13:30,25.6,41,23.5,21.3
 2003/06/03,13:45,25.6,41,23.6,21.3
 2003/06/03,14:00,25.6,41,23.6,21.4
 2003/06/03,14:15,25.9,41,23.7,21.4
 2003/06/03,14:30,26.1,41,23.9,21.3
 2003/06/03,14:45,26.5,40,23.9,21.4
 2003/06/03,15:00,26.5,40,24,21.4
 2003/06/03,15:15,26.8,40,24.1,21.4
 2003/06/03,15:30,27,40,24.2,21.3
 2003/06/03,15:45,27,40,24.4,21.3
 2003/06/03,16:00,27,40,24.5,21.3
 2003/06/03,16:15,27.3,40,24.6,21.3
 2003/06/03,16:30,27.6,39,24.8,21.3
 2003/06/03,16:45,27.8,39,24.9,21.4
 2003/06/03,17:00,28,39,25,21.4
 2003/06/03,17:15,28.1,39,25.3,21.4
 2003/06/03,17:30,28.2,39,25.2,21.4
 2003/06/03,17:45,28.1,40,25.1,21.5
 2003/06/03,18:00,28.4,44,25.2,21.5
 2003/06/03,18:15,28.4,45,25.2,21.5
 2003/06/03,18:30,28.5,43,25.2,21.6
 2003/06/03,18:45,28.4,42,25.1,21.6
 2003/06/03,19:00,28.3,42,25.1,21.7
 2003/06/03,19:15,28.3,42,25.1,21.7
 2003/06/03,19:30,28.3,45,24.8,21.7
 2003/06/03,19:45,28.3,47,24.9,21.8
 2003/06/03,20:00,28.2,47,24.9,21.8
 2003/06/03,20:15,28,47,24.9,21.8
 2003/06/03,20:30,27.8,46,24.7,21.5
 2003/06/03,20:45,27.6,40,24.5,21.6
 2003/06/03,21:00,27.5,38,24.5,21.4
 2003/06/03,21:15,27.5,37,24.4,21.4
 2003/06/03,21:30,27.3,38,24.2,21.5
 2003/06/03,21:45,27.3,38,24.1,21.5
 2003/06/03,22:00,27.4,39,24,21.4
 2003/06/03,22:15,27.1,39,23.9,21.5
 2003/06/03,22:30,27.1,41,23.8,21.5
 2003/06/03,22:45,27.1,39,23.7,21.5
 2003/06/03,23:00,26.8,38,23.6,21.5
 2003/06/03,23:15,26.6,37,23.4,21.6
 2003/06/03,23:30,26.4,36,23.2,21.6
 2003/06/03,23:45,26.2,36,23,21.5
 2003/06/04, 0:00,25.8,37,22.9,21.5
 2003/06/04, 0:15,26,38,22.9,21.4
 2003/06/04, 0:30,25.9,38,22.9,21.4
 2003/06/04, 0:45,25.7,39,22.8,21.5
 2003/06/04, 1:00,25.7,39,22.7,21.5
 2003/06/04, 1:15,25.5,39,22.7,21.5
 2003/06/04, 1:30,25.4,39,22.6,21.5
 2003/06/04, 1:45,25.3,40,22.6,21.6
 2003/06/04, 2:00,25.1,40,22.5,21.6
 2003/06/04, 2:15,25,40,22.4,21.6
 2003/06/04, 2:30,24.9,40,22.3,21.6
 2003/06/04, 2:45,24.5,40,22.2,21.7
 2003/06/04, 3:00,24.6,40,22.2,21.5
 2003/06/04, 3:15,24.6,40,22.1,21.5
 2003/06/04, 3:30,24.5,40,22,21.5
 2003/06/04, 3:45,24.3,40,21.9,21.5
 2003/06/04, 4:00,24,40,21.9,21.5
 2003/06/04, 4:15,24.2,40,21.7,21.6
 2003/06/04, 4:30,24.3,40,21.7,21.6
 2003/06/04, 4:45,24.2,40,21.6,21.6
 2003/06/04, 5:00,24.1,40,21.5,21.6
 2003/06/04, 5:15,23.8,41,21.5,21.6
 2003/06/04, 5:30,23.8,41,21.3,21.4
 2003/06/04, 5:45,23.9,49,21.2,21.4
 2003/06/04, 6:00,23.8,43,21.4,21.4
 2003/06/04, 6:15,23.9,47,21.3,21.4
 2003/06/04, 6:30,23.9,46,21.3,21.4
 2003/06/04, 6:45,24.4,49,21.3,21.4
 2003/06/04, 7:00,24.6,48,21.3,21.3
 2003/06/04, 7:15,24.5,47,21.3,21.4
 2003/06/04, 7:30,24.4,46,21.2,21.3
 2003/06/04, 7:45,24.5,46,21.2,21.3
 2003/06/04, 8:00,24.5,46,21.2,21.3
 2003/06/04, 8:15,24.2,45,21.3,21.3
 2003/06/04, 8:30,24.3,45,21.3,21.3
 2003/06/04, 8:45,24.3,45,21.5,21.3
 2003/06/04, 9:00,24.4,44,21.6,21.3
 2003/06/04, 9:15,24.5,43,21.8,21.3
 2003/06/04, 9:30,24.5,44,22,21.3
 2003/06/04, 9:45,24.5,44,22.1,21.3
 2003/06/04,10:00,24.3,44,22.1,21.3
 2003/06/04,10:15,24.3,44,22.1,21.3
 2003/06/04,10:30,24.5,44,22.2,21.3
 2003/06/04,10:45,24.6,44,22.3,21.3
 2003/06/04,11:00,24.6,44,22.2,21.4
 2003/06/04,11:15,24.3,44,22.3,21.4
 2003/06/04,11:30,24.5,44,22.3,21.4
 2003/06/04,11:45,24.6,44,22.4,21.4
 2003/06/04,12:00,24.7,44,22.5,21.4
 2003/06/04,12:15,24.5,44,22.5,21.4
 2003/06/04,12:30,24.4,44,22.6,21.4
 2003/06/04,12:45,24.5,44,22.6,21.5
 2003/06/04,13:00,24.8,44,22.7,21.5
 2003/06/04,13:15,24.9,43,22.7,21.5
 2003/06/04,13:30,24.8,43,22.7,21.5
 2003/06/04,13:45,24.7,44,22.7,21.5
 2003/06/04,14:00,25.1,44,22.9,21.5
 2003/06/04,14:15,25.2,44,22.9,21.3
 2003/06/04,14:30,25.2,44,23,21.4
 2003/06/04,14:45,25.2,44,23,21.4
 2003/06/04,15:00,25.1,44,23.2,21.4
 2003/06/04,15:15,25.5,43,23.3,21.4
 2003/06/04,15:30,26,45,23.7,21.5
 2003/06/04,15:45,26.5,45,24.1,21.5
 2003/06/04,16:00,26.7,43,24.2,21.5
 2003/06/04,16:15,26.9,42,24.4,21.4
 2003/06/04,16:30,27,42,24.3,21.4
 2003/06/04,16:45,27.4,41,24.4,21.5
 2003/06/04,17:00,27.8,40,24.5,21.5
 2003/06/04,17:15,27.9,40,24.5,21.5
 2003/06/04,17:30,28,43,24.5,21.5
 2003/06/04,17:45,28.3,43,24.9,21.6
 2003/06/04,18:00,28.3,42,25.1,21.4
 2003/06/04,18:15,28.3,41,25,21.6
 2003/06/04,18:30,28.2,41,24.8,21.6
 2003/06/04,18:45,28,42,24.7,21.5
 2003/06/04,19:00,27.7,42,24.5,21.6
 2003/06/04,19:15,27.6,42,24.4,21.6
 2003/06/04,19:30,27.4,42,24.3,21.6
 2003/06/04,19:45,27.4,42,24.1,21.6
 2003/06/04,20:00,27.2,43,24.1,21.7
 2003/06/04,20:15,27.7,47,23.9,21.7
 2003/06/04,20:30,27.2,43,23.8,21.7
 2003/06/04,20:45,27,41,23.6,21.7
 2003/06/04,21:00,26.8,39,23.5,21.8
 2003/06/04,21:15,26.7,40,23.4,21.6
 2003/06/04,21:30,26.7,41,23.3,21.6
 2003/06/04,21:45,26.7,42,23.3,21.6
 2003/06/04,22:00,26.8,44,23.2,21.6
 2003/06/04,22:15,26.9,44,23.1,21.5
 2003/06/04,22:30,26.7,44,22.9,21.3
 2003/06/04,22:45,26.9,47,22.9,21.3
 2003/06/04,23:00,27,49,22.8,21.3
 2003/06/04,23:15,26.8,49,22.8,21.4
 2003/06/04,23:30,26.6,48,22.7,21.4
 2003/06/04,23:45,26.5,47,22.7,21.4
 2003/06/05, 0:00,26.4,46,22.6,21.4
 2003/06/05, 0:15,26.3,46,22.6,21.4
 2003/06/05, 0:30,26.2,46,22.4,21.4
 2003/06/05, 0:45,26.1,46,22.4,21.4
 2003/06/05, 1:00,25.9,46,22.3,21.5
 2003/06/05, 1:15,25.8,46,22.2,21.5
 2003/06/05, 1:30,25.7,46,22.1,21.5
 2003/06/05, 1:45,25.6,45,22,21.5
 2003/06/05, 2:00,25.5,45,22,21.5
 2003/06/05, 2:15,25.4,45,21.9,21.5
 2003/06/05, 2:30,25.2,46,21.8,21.6
 2003/06/05, 2:45,25.3,45,21.7,21.6
 2003/06/05, 3:00,25.2,45,21.6,21.6
 2003/06/05, 3:15,24.8,46,21.5,21.6
 2003/06/05, 3:30,24.6,46,21.5,21.6
 2003/06/05, 3:45,24.6,46,21.4,21.6
 2003/06/05, 4:00,24.8,46,21.4,21.7
 2003/06/05, 4:15,24.8,46,21.3,21.7
 2003/06/05, 4:30,24.8,46,21.2,21.7
 2003/06/05, 4:45,24.7,46,21.2,21.7
 2003/06/05, 5:00,24.6,46,21.1,21.7
 2003/06/05, 5:15,24.5,46,21.1,21.7
 2003/06/05, 5:30,24.3,46,21,21.3
 2003/06/05, 5:45,24.3,49,21,21.3
 2003/06/05, 6:00,24.3,48,21.1,21.4
 2003/06/05, 6:15,24.2,48,21.1,21.4
 2003/06/05, 6:30,24.6,50,21.2,21.3
 2003/06/05, 6:45,24.6,52,21.3,21.3
 2003/06/05, 7:00,24.6,51,21.4,21.3
 2003/06/05, 7:15,24.7,51,21.5,21.3
 2003/06/05, 7:30,24.8,50,21.6,21.2
 2003/06/05, 7:45,24.7,50,21.7,21.2
 2003/06/05, 8:00,24.8,49,21.8,20.6
 2003/06/05, 8:15,24.9,47,22,21.1
 2003/06/05, 8:30,25,46,22.1,21.1
 2003/06/05, 8:45,25,48,22.4,21.3
 2003/06/05, 9:00,25.2,46,22.6,21.3
 2003/06/05, 9:15,25.5,47,22.8,21.3
 2003/06/05, 9:30,25.7,48,22.9,21.3
 2003/06/05, 9:45,25.5,48,23.1,21.2
 2003/06/05,10:00,25.7,47,23.2,21.2
 2003/06/05,10:15,25.9,46,23.4,21.2
 2003/06/05,10:30,26.1,46,23.5,21.3
 2003/06/05,10:45,25.9,46,23.6,21.3
 2003/06/05,11:00,26,46,23.7,21.3
 2003/06/05,11:15,26.1,46,23.8,21.3
 2003/06/05,11:30,26.3,45,23.9,21.3
 2003/06/05,11:45,26.3,45,24,21.4
 2003/06/05,12:00,26.2,45,24.1,21.4
 2003/06/05,12:15,26.5,45,24.4,21.4
 2003/06/05,12:30,26.6,44,24.5,21.4
 2003/06/05,12:45,26.5,45,24.8,21.5
 2003/06/05,13:00,26.7,44,25,21.5
 2003/06/05,13:15,26.9,44,25,21.5
 2003/06/05,13:30,27.2,44,25.1,21.5
 2003/06/05,13:45,27.1,44,25.1,21.6
 2003/06/05,14:00,27.1,44,25.2,21.6
 2003/06/05,14:15,27.4,43,25.3,21.6
 2003/06/05,14:30,27.6,43,25.3,21.4
 2003/06/05,14:45,27.7,43,25.4,21.5
 2003/06/05,15:00,28,43,25.5,21.5
 2003/06/05,15:15,28.1,43,25.6,21.5
 2003/06/05,15:30,28.2,42,25.7,21.6
 2003/06/05,15:45,28.1,44,25.7,21.6
 2003/06/05,16:00,28.2,43,25.8,21.6
 2003/06/05,16:15,28.5,41,25.9,21.6
 2003/06/05,16:30,28.8,39,26.2,21.6
 2003/06/05,16:45,29.2,39,26.5,21.7
 2003/06/05,17:00,29.4,39,26.4,21.7
 2003/06/05,17:15,29.5,39,26.4,21.7
 2003/06/05,17:30,29.5,39,26.3,21.8
 2003/06/05,17:45,29.3,39,26.2,21.8
 2003/06/05,18:00,29,40,26.2,21.7
 2003/06/05,18:15,29.3,45,26.3,21.5
 2003/06/05,18:30,29.2,40,26.3,21.6
 2003/06/05,18:45,29.6,44,26.3,21.5
 2003/06/05,19:00,29.6,41,26.3,21.5
 2003/06/05,19:15,29.3,42,26.3,21.6
 2003/06/05,19:30,29.2,42,26.1,21.6
 2003/06/05,19:45,29.1,41,26,21.7
 2003/06/05,20:00,29.1,40,25.9,21.8
 2003/06/05,20:15,29,40,25.8,21.9
 2003/06/05,20:30,28.6,40,25.5,21.9
 2003/06/05,20:45,28.5,39,25.5,21.9
 2003/06/05,21:00,28.6,39,25.4,22
 2003/06/05,21:15,28.5,38,25.3,21.7
 2003/06/05,21:30,28.2,38,25.2,21.4
 2003/06/05,21:45,28.2,41,25.1,21.5
 2003/06/05,22:00,28,40,25,21.5
 2003/06/05,22:15,28,39,24.9,21.6
 2003/06/05,22:30,27.9,40,24.8,21.6
 2003/06/05,22:45,27.9,40,24.7,21.7
 2003/06/05,23:00,27.9,40,24.6,21.7
 2003/06/05,23:15,27.6,40,24.6,21.7
 2003/06/05,23:30,27.4,40,24.5,21.7
 2003/06/05,23:45,27.3,39,24.3,21.8
 2003/06/06, 0:00,27.3,38,24.2,21.8
 2003/06/06, 0:15,26.9,38,24.1,21.8
 2003/06/06, 0:30,26.8,39,24,21.8
 2003/06/06, 0:45,26.7,39,23.9,21.8
 2003/06/06, 1:00,26.5,39,23.8,21.8
 2003/06/06, 1:15,26.3,40,23.7,21.9
 2003/06/06, 1:30,26.3,40,23.6,21.9
 2003/06/06, 1:45,26.1,40,23.5,21.9
 2003/06/06, 2:00,25.9,40,23.4,22
 2003/06/06, 2:15,26,40,23.2,21.8
 2003/06/06, 2:30,25.8,41,23.1,21.8
 2003/06/06, 2:45,25.5,42,23,21.9
 2003/06/06, 3:00,25.5,41,22.9,21.9
 2003/06/06, 3:15,25.5,41,22.9,21.9
 2003/06/06, 3:30,25.4,41,22.8,21.9
 2003/06/06, 3:45,25,42,22.6,22
 2003/06/06, 4:00,24.8,42,22.5,22
 2003/06/06, 4:15,24.9,42,22.4,22
 2003/06/06, 4:30,25,42,22.3,22
 2003/06/06, 4:45,24.9,42,22.3,22
 2003/06/06, 5:00,24.9,42,22.2,22.1
 2003/06/06, 5:15,24.6,42,22.1,22.1
 2003/06/06, 5:30,24.6,42,22,22.1
 2003/06/06, 5:45,24.5,52,22,21.8
 2003/06/06, 6:00,24.2,46,22,21.8
 2003/06/06, 6:15,24.4,46,22,21.8
 2003/06/06, 6:30,24.5,46,22.1,21.9
 2003/06/06, 6:45,24.8,45,22.1,21.6
 2003/06/06, 7:00,24.9,45,22.2,21.5
 2003/06/06, 7:15,24.7,45,22.4,21.5
 2003/06/06, 7:30,24.9,44,22.5,21.6
 2003/06/06, 7:45,24.9,44,22.6,21.6
 2003/06/06, 8:00,24.8,43,22.6,21.6
 2003/06/06, 8:15,25,43,22.7,21.6
 2003/06/06, 8:30,25.1,46,22.9,21.6
 2003/06/06, 8:45,25.2,44,23.3,21.6
 2003/06/06, 9:00,25.3,43,23.5,21.5
 2003/06/06, 9:15,25.3,43,23.6,21.5
 2003/06/06, 9:30,25.6,42,23.6,21.6
 2003/06/06, 9:45,25.5,42,23.8,21.6
 2003/06/06,10:00,25.8,42,23.9,21.6
 2003/06/06,10:15,25.9,43,24,21.6
 2003/06/06,10:30,26,43,24.1,21.7
 2003/06/06,10:45,26.2,43,24.3,21.7
 2003/06/06,11:00,26.1,42,24.4,21.7
 2003/06/06,11:15,26.3,43,24.5,21.7
 2003/06/06,11:30,26.4,44,24.5,21.8
 2003/06/06,11:45,26.4,45,24.6,21.8
 2003/06/06,12:00,26.7,44,24.8,21.8
 2003/06/06,12:15,26.8,44,24.9,21.8
 2003/06/06,12:30,26.8,44,25.1,21.9
 2003/06/06,12:45,27.1,43,25.3,21.9
 2003/06/06,13:00,27,42,25.5,21.9
 2003/06/06,13:15,27.3,41,25.5,22
 2003/06/06,13:30,27.4,40,25.6,22
 2003/06/06,13:45,27.8,41,25.6,22
 2003/06/06,14:00,28,40,25.5,21.9
 2003/06/06,14:15,28.2,39,25.6,21.9
 2003/06/06,14:30,28.2,39,25.9,21.9
 2003/06/06,14:45,28.4,38,26.1,22
 2003/06/06,15:00,28.4,39,26.1,22
 2003/06/06,15:15,28.4,39,26.2,22
 2003/06/06,15:30,28.7,39,26.2,22
 2003/06/06,15:45,28.7,38,26.4,22
 2003/06/06,16:00,28.7,38,26.4,22.1
 2003/06/06,16:15,28.9,38,26.5,22
 2003/06/06,16:30,29,37,26.5,22
 2003/06/06,16:45,29,38,26.7,22
 2003/06/06,17:00,28.9,39,26.7,22.1
 2003/06/06,17:15,29,39,26.7,22.1
 2003/06/06,17:30,29.2,38,26.7,22.2
 2003/06/06,17:45,29.3,38,26.7,22.2
 2003/06/06,18:00,29.3,39,26.6,22.3
 2003/06/06,18:15,29.4,42,26.6,22.3
 2003/06/06,18:30,29.4,39,26.6,22.4
 2003/06/06,18:45,29.4,38,26.5,22.4
 2003/06/06,19:00,29.2,38,26.4,21.9
 2003/06/06,19:15,29,38,26.3,21.8
 2003/06/06,19:30,29,39,26.4,21.9
 2003/06/06,19:45,28.8,39,26.1,21.8
 2003/06/06,20:00,28.8,39,26.1,21.8
 2003/06/06,20:15,29,40,26,21.9
 2003/06/06,20:30,29,40,26,21.9
 2003/06/06,20:45,28.8,42,25.9,21.8
 2003/06/06,21:00,28.4,41,25.8,21.8
 2003/06/06,21:15,28.4,40,25.6,21.9
 2003/06/06,21:30,28.4,40,25.5,21.9
 2003/06/06,21:45,28.4,41,25.5,22
 2003/06/06,22:00,28.3,42,25.4,22
 2003/06/06,22:15,28.5,42,25.4,22.1
 2003/06/06,22:30,28.6,41,25.3,22.1
 2003/06/06,22:45,28.6,41,25.3,22.2
 2003/06/06,23:00,28.3,42,25.3,21.9
 2003/06/06,23:15,28.4,43,25.3,21.9
 2003/06/06,23:30,28.4,44,25.3,21.9
 2003/06/06,23:45,28.4,43,25.2,22
 2003/06/07, 0:00,28.3,44,25.2,22
 2003/06/07, 0:15,28.4,44,25.1,22
 2003/06/07, 0:30,28.5,44,25.1,22
 2003/06/07, 0:45,28.2,44,25.1,22.1
 2003/06/07, 1:00,28.1,44,25.1,22.2
 2003/06/07, 1:15,28.1,44,25,22.2
 2003/06/07, 1:30,28.2,44,25,22.3
 2003/06/07, 1:45,28,44,25,22.3
 2003/06/07, 2:00,27.9,45,24.9,22.3
 2003/06/07, 2:15,28,44,24.9,22.4
 2003/06/07, 2:30,27.9,45,24.8,22.4
 2003/06/07, 2:45,27.7,45,24.8,22.5
 2003/06/07, 3:00,27.8,46,24.7,22.5
 2003/06/07, 3:15,27.8,46,24.7,22.3
 2003/06/07, 3:30,27.9,45,24.7,22.3
 2003/06/07, 3:45,27.8,45,24.6,22.3
 2003/06/07, 4:00,27.5,46,24.6,22.4
 2003/06/07, 4:15,27.4,46,24.5,22.4
 2003/06/07, 4:30,27.6,46,24.4,22.4
 2003/06/07, 4:45,27.7,46,24.4,22.5
 2003/06/07, 5:00,27.8,46,24.3,22.5
 2003/06/07, 5:15,27.7,44,24.2,22.5
 2003/06/07, 5:30,27.7,44,24.2,22.6
 2003/06/07, 5:45,27.5,45,24.3,22.2
 2003/06/07, 6:00,27.4,49,24.2,22.2
 2003/06/07, 6:15,27.6,47,23.9,22.1
 2003/06/07, 6:30,27.8,47,23.8,22
 2003/06/07, 6:45,27.9,49,23.7,22
 2003/06/07, 7:00,28,47,23.8,21.9
 2003/06/07, 7:15,28.1,47,23.7,21.9
 2003/06/07, 7:30,28,47,23.6,21.9
 2003/06/07, 7:45,27.5,47,23.9,21.9
 2003/06/07, 8:00,27.5,47,24,22
 2003/06/07, 8:15,27.6,47,24,22
 2003/06/07, 8:30,27.3,47,24.1,22
 2003/06/07, 8:45,27.5,47,24.1,21.8
 2003/06/07, 9:00,27.6,46,24.3,21.8
 2003/06/07, 9:15,27.7,45,24.5,21.9
 2003/06/07, 9:30,27.5,46,24.9,21.9
 2003/06/07, 9:45,27.9,46,24.9,21.9
 2003/06/07,10:00,28,46,25,22
 2003/06/07,10:15,28.2,46,25.1,21.9
 2003/06/07,10:30,28.4,45,25.5,21.9
 2003/06/07,10:45,28.8,47,25.8,21.9
 2003/06/07,11:00,28.8,45,26,22
 2003/06/07,11:15,28.5,45,26,22
 2003/06/07,11:30,28.6,45,26.1,22.1
 2003/06/07,11:45,28.7,44,26.2,22.1
 2003/06/07,12:00,28.8,44,26.3,22.1
 2003/06/07,12:15,29.1,47,26.2,22.2
 2003/06/07,12:30,29.3,46,26.5,22.2
 2003/06/07,12:45,29.3,46,26.8,22.3
 2003/06/07,13:00,29.2,46,26.7,22.1
 2003/06/07,13:15,29.3,45,26.8,22.1
 2003/06/07,13:30,29.4,44,27,22.1
 2003/06/07,13:45,29.5,45,27,22.2
 2003/06/07,14:00,29.5,44,27,22.2
 2003/06/07,14:15,29.5,44,27,22.3
 2003/06/07,14:30,29.6,44,26.9,22.3
 2003/06/07,14:45,29.3,44,26.9,22.4
 2003/06/07,15:00,29.1,44,26.9,22.4
 2003/06/07,15:15,29.4,44,26.9,22.5
 2003/06/07,15:30,29.6,44,27,22.5
 2003/06/07,15:45,29.6,43,27,22.6
 2003/06/07,16:00,29.7,43,27,22.6
 2003/06/07,16:15,29.8,43,26.9,22.7
 2003/06/07,16:30,29.9,44,26.9,22
 2003/06/07,16:45,29.8,43,26.9,22.1
 2003/06/07,17:00,29.9,43,26.9,22.1
 2003/06/07,17:15,29.8,43,26.8,22.2
 2003/06/07,17:30,29.5,42,26.6,22.1
 2003/06/07,17:45,29.5,48,26.6,22.2
 2003/06/07,18:00,29.6,45,26.5,22.2
 2003/06/07,18:15,29.4,44,26.4,22.3
 2003/06/07,18:30,29.4,44,26.3,22.3
 2003/06/07,18:45,29,44,26.2,22.4
 2003/06/07,19:00,29,44,26.1,22.4
 2003/06/07,19:15,29.4,46,26.1,22.5
 2003/06/07,19:30,29.6,46,26,22.5
 2003/06/07,19:45,29.3,44,25.8,22.6